Wind_Speed
26 28 30 33 34 33 30 25 24 25 26 26 27 30 33 35 36 37 37 37 36 37 38 38 39 40 41 41 41 41 41 41 41 42 42 43 43 43 43 43 44 44 45
29 31 32 34 34 32 29 27 26 28 29 30 32 34 36 39 41 41 39 38 38 38 39 40 41 42 42 42 43 44 45 45 45 45 44 44 45 46 47 47 47 48 48
30 31 31 32 34 32 29 28 28 31 33 36 38 40 43 44 44 41 39 39 39 40 41 42 43 44 44 44 45 46 48 48 50 50 51 51 53 54 55 55 55 55 55
26 27 31 32 33 31 30 29 31 34 37 40 42 43 44 45 43 39 37 38 40 41 42 44 45 46 47 48 49 50 52 54 56 57 59 59 60 62 63 63 63 63 63
25 27 31 32 31 29 29 31 33 37 39 40 42 42 39 37 37 37 38 39 41 42 44 46 48 49 51 53 54 56 57 59 61 62 63 64 65 66 67 67 67 68 68
25 29 32 30 28 28 32 34 37 37 38 40 40 38 35 35 37 39 40 42 44 46 49 51 52 54 56 58 59 61 62 63 65 65 65 66 67 67 68 68 69 70 71
27 30 30 28 29 31 35 37 37 38 39 39 36 36 37 39 40 42 44 46 49 52 54 55 57 58 61 62 64 64 65 65 66 66 66 67 69 68 68 69 69 70 71
29 30 31 32 34 35 38 38 39 41 41 39 37 37 39 41 44 46 48 50 53 55 57 60 61 62 63 63 63 64 64 65 66 68 69 70 72 73 74 75 75 75 75
32 33 35 37 38 39 40 40 42 43 42 42 41 41 42 43 45 46 50 54 56 59 60 61 61 61 61 62 63 64 67 70 72 74 76 77 79 80 81 82 82 82 82
36 38 40 41 41 42 42 43 44 43 42 43 44 47 50 52 54 53 52 55 56 57 58 58 59 60 63 66 69 71 74 77 79 81 83 85 87 89 90 90 90 90 90
41 43 44 44 44 43 44 45 44 43 43 45 48 51 54 58 61 62 60 59 59 59 59 59 61 65 68 71 73 76 79 82 86 89 92 95 97 99 100 100 100 100 99
44 45 46 45 44 44 45 44 44 45 47 50 53 56 60 63 65 65 65 65 65 64 64 65 66 69 72 75 78 83 87 92 96 100 103 105 107 108 110 111 111 113 113
45 46 45 45 44 44 43 43 45 48 51 54 57 61 65 68 69 71 72 70 69 69 71 73 74 76 79 83 88 94 99 104 108 112 115 118 119 120 120 121 122 124 124
45 45 44 44 43 42 43 45 48 52 55 58 62 66 69 72 75 75 74 73 74 74 75 77 79 83 89 95 101 106 112 118 123 126 127 127 126 124 121 118 117 115 112
43 43 43 43 42 43 45 48 51 55 58 62 66 69 73 77 77 75 75 78 80 79 77 81 87 93 100 106 111 118 124 129 130 129 123 117 110 102 94 88 86 84 85
42 43 43 42 43 45 48 51 54 57 61 65 68 72 77 78 77 77 79 81 83 85 85 89 98 105 111 117 123 128 129 125 118 114 111 106 97 88 82 75 72 70 69
41 42 42 43 46 49 51 54 57 61 65 68 72 76 79 78 78 80 80 83 88 94 99 99 105 110 116 119 119 115 109 105 101 97 92 88 84 78 71 67 64 62 63
41 42 44 46 49 52 55 58 61 64 67 71 76 78 77 78 79 80 83 89 95 102 108 110 112 115 110 101 94 89 82 78 76 73 70 68 66 62 59 59 58 59 61
41 44 46 49 52 55 57 59 61 66 72 76 76 76 77 78 80 85 89 96 103 108 113 117 112 102 90 81 71 61 56 52 49 48 47 47 48 48 48 49 50 53 55
44 47 50 52 54 54 56 61 66 72 75 74 74 76 78 81 86 91 96 104 109 111 111 105 94 83 70 57 50 47 42 39 36 34 31 31 33 35 38 41 42 43 44
46 50 52 52 53 56 61 66 71 73 72 73 75 78 82 87 93 97 104 108 110 105 97 87 76 63 50 46 45 41 35 30 30 30 24 24 26 28 31 35 38 39 42
48 50 51 54 57 61 66 70 71 70 73 74 78 83 88 94 99 103 108 108 102 92 82 71 57 46 42 43 37 33 30 27 26 29 26 27 29 29 31 33 34 36 40
49 52 55 57 60 64 68 68 69 71 74 79 84 88 94 100 104 107 105 97 85 77 68 55 43 44 42 36 33 28 26 25 27 28 24 24 28 28 32 35 34 34 36
52 54 56 59 63 65 65 67 70 74 79 85 89 95 100 103 107 103 94 82 71 60 50 45 46 42 34 33 31 29 25 22 25 30 28 25 29 27 29 32 28 28 28
53 55 59 61 62 63 66 70 74 80 85 89 95 101 103 105 100 89 78 67 55 44 39 42 41 35 34 34 32 28 25 23 23 29 32 29 28 26 27 27 22 22 19
54 58 59 59 61 64 69 74 80 86 90 95 99 101 102 95 82 72 62 51 39 33 35 34 32 32 33 33 32 32 30 28 27 28 30 27 25 24 21 25 24 21 17
Wind_Direction
274 279 281 289 295 298 299 298 302 304 301 299 297 300 304 305 304 303 302 299 295 294 293 292 291 291 290 291 289 287 286 285 283 282 282 282 282 281 280 279 277 275 274
274 277 283 288 292 295 291 292 295 300 300 299 300 303 303 303 303 301 298 295 292 290 289 289 288 287 287 286 285 286 285 284 283 282 281 281 280 278 276 275 274 273 273
274 279 284 287 290 290 286 288 294 297 299 298 298 299 299 298 298 297 294 292 290 289 287 287 285 285 284 283 283 283 284 283 282 282 281 280 279 278 277 276 275 274 273
271 277 283 285 290 288 284 290 296 295 295 296 297 297 297 296 295 296 293 291 290 290 289 288 287 287 285 284 284 284 283 283 282 281 280 280 279 278 277 276 275 274 273
270 276 281 285 286 286 287 291 295 295 297 298 298 299 298 297 297 297 295 293 292 291 290 290 289 289 288 287 287 286 285 284 283 282 281 280 278 277 276 275 273 272 271
276 279 285 285 282 285 290 295 297 298 299 300 301 299 297 297 296 295 295 294 293 293 293 292 292 292 292 291 289 288 287 286 284 283 281 279 278 277 276 275 274 273 272
280 283 285 280 282 288 293 296 298 301 301 301 297 295 295 295 295 296 296 296 296 296 296 295 294 294 293 291 290 289 288 286 284 282 280 278 277 276 275 274 272 271 271
282 282 283 283 285 290 293 296 301 302 301 299 295 292 291 295 298 299 298 297 296 296 295 295 294 294 292 291 290 289 288 287 286 284 282 281 279 279 278 276 275 273 270
281 282 283 285 288 292 295 298 301 300 298 297 295 293 293 292 291 293 295 296 296 297 296 295 294 292 290 288 287 286 285 285 284 283 282 281 279 278 277 276 274 272 270
280 282 282 286 290 293 295 298 298 297 296 297 298 298 299 299 298 296 294 294 295 295 294 292 290 288 288 287 287 286 285 285 285 284 284 282 281 279 278 276 274 272 270
280 281 283 287 290 293 296 297 296 297 297 298 299 299 300 301 301 300 298 298 298 297 294 291 289 287 286 285 285 285 285 285 284 284 283 283 282 281 281 279 278 276 274
279 280 283 287 291 294 296 297 298 298 298 299 300 301 301 301 301 300 299 298 297 295 294 292 291 290 289 288 288 288 287 286 286 285 284 284 283 282 281 280 280 278 277
278 281 286 290 293 295 296 298 299 299 299 300 300 301 302 303 303 303 303 302 301 299 298 297 297 297 296 294 293 293 292 291 290 289 288 286 284 283 282 281 280 279 278
280 285 289 292 294 296 298 299 299 298 298 299 300 301 303 304 305 306 305 303 301 300 300 299 300 300 300 298 297 296 295 294 293 291 290 288 286 284 283 282 281 280 279
285 289 291 293 295 297 299 299 298 297 298 299 300 302 304 306 307 306 304 303 303 302 303 303 302 301 299 298 297 296 296 295 293 291 288 285 283 281 279 278 277 275 273
288 291 292 294 296 297 299 299 298 297 298 300 302 304 305 307 306 306 305 305 305 305 305 305 304 301 300 300 300 299 298 296 292 289 285 283 280 278 275 273 272 272 272
290 291 293 295 297 298 298 298 298 299 301 303 304 306 307 307 307 307 306 306 306 306 306 305 304 303 303 302 301 300 298 297 294 291 287 283 279 276 271 267 267 268 270
291 293 296 298 298 298 299 300 301 302 304 305 306 307 307 307 307 307 307 308 308 308 308 308 308 307 305 303 302 302 302 300 297 294 290 284 280 275 272 271 269 269 271
294 296 298 298 299 300 301 302 304 305 306 307 308 308 308 308 308 309 310 310 310 311 311 310 310 309 307 306 306 307 308 308 305 299 293 287 281 277 273 273 273 274 276
297 298 299 300 301 301 303 306 307 307 308 308 308 308 308 308 310 310 310 311 312 312 311 311 311 312 311 310 310 311 315 317 315 309 305 299 290 284 281 280 281 284 287
300 301 302 302 303 305 306 307 308 308 309 309 309 309 310 310 310 311 312 313 313 312 311 312 313 315 315 315 316 317 320 324 322 319 327 314 304 299 293 294 294 292 292
301 302 303 305 306 307 307 308 309 309 310 310 311 312 312 311 311 312 313 313 313 312 312 313 316 317 319 320 323 326 326 326 323 320 328 318 311 304 298 297 299 300 300
302 304 305 306 306 307 308 309 310 311 311 312 313 313 313 313 312 312 313 312 312 310 310 313 316 318 322 324 328 331 331 330 327 326 335 325 315 309 302 300 303 306 305
304 305 306 306 307 308 309 311 312 312 313 314 314 313 314 314 313 314 312 312 312 309 309 310 314 318 322 327 330 334 336 334 329 326 332 329 317 315 310 307 314 316 315
304 305 306 307 308 309 311 313 313 314 314 314 315 315 315 315 315 313 314 315 313 309 309 311 315 318 323 328 332 338 338 335 336 330 334 337 329 329 321 317 334 339 335
305 306 307 308 309 311 313 314 315 315 315 316 316 316 316 316 315 316 317 317 315 312 313 313 315 319 323 328 331 335 340 342 346 343 338 339 332 332 331 324 326 328 319
Height
5803 5802 5802 5802 5800 5797 5795 5794 5792 5790 5788 5786 5785 5783 5782 5779 5776 5773 5770 5767 5765 5763 5761 5760 5759 5757 5754 5753 5751 5750 5749 5748 5747 5746 5746 5745 5745 5745 5745 5745 5745 5746 5747
5797 5796 5797 5797 5795 5792 5790 5790 5788 5785 5783 5781 5778 5776 5774 5771 5768 5765 5763 5760 5758 5756 5754 5753 5751 5749 5747 5745 5742 5740 5739 5738 5736 5735 5735 5735 5734 5733 5733 5733 5733 5734 5734
5791 5791 5791 5790 5789 5787 5786 5785 5782 5780 5777 5774 5770 5767 5765 5762 5759 5757 5754 5752 5749 5747 5746 5744 5742 5740 5738 5735 5734 5731 5729 5727 5725 5724 5723 5722 5720 5719 5719 5719 5719 5720 5721
5785 5786 5785 5783 5782 5781 5780 5778 5775 5773 5770 5766 5762 5760 5756 5753 5750 5748 5745 5743 5741 5738 5736 5734 5731 5729 5727 5725 5722 5719 5717 5714 5711 5709 5708 5707 5705 5704 5703 5704 5703 5704 5704
5779 5779 5778 5776 5776 5774 5774 5771 5768 5765 5762 5758 5754 5751 5748 5744 5741 5739 5736 5734 5731 5728 5725 5722 5720 5717 5714 5711 5708 5704 5701 5699 5695 5693 5691 5689 5687 5686 5685 5685 5685 5686 5686
5772 5772 5771 5769 5769 5767 5767 5763 5760 5758 5755 5751 5747 5743 5740 5737 5734 5731 5728 5724 5720 5717 5714 5710 5707 5703 5700 5696 5692 5688 5685 5682 5678 5676 5674 5670 5669 5668 5667 5666 5665 5665 5666
5766 5765 5764 5763 5762 5760 5758 5755 5751 5749 5747 5743 5740 5736 5733 5729 5726 5723 5718 5714 5709 5704 5700 5696 5692 5688 5684 5680 5675 5671 5667 5663 5659 5657 5654 5651 5649 5647 5647 5646 5646 5646 5646
5759 5758 5757 5757 5755 5752 5750 5747 5742 5739 5736 5733 5731 5728 5726 5723 5717 5713 5707 5702 5697 5692 5686 5681 5676 5672 5667 5662 5657 5653 5649 5645 5640 5637 5633 5630 5627 5626 5624 5623 5622 5622 5623
5752 5751 5750 5749 5746 5743 5740 5737 5733 5730 5726 5722 5719 5716 5714 5713 5711 5708 5701 5693 5686 5679 5673 5667 5661 5655 5650 5645 5641 5636 5631 5626 5621 5616 5612 5608 5604 5602 5600 5599 5597 5596 5597
5746 5744 5743 5740 5737 5734 5731 5727 5723 5719 5715 5711 5707 5703 5698 5694 5692 5692 5692 5684 5677 5670 5663 5655 5648 5641 5635 5630 5624 5618 5612 5606 5598 5592 5587 5582 5577 5573 5571 5569 5568 5567 5568
5738 5736 5734 5731 5728 5724 5720 5715 5712 5708 5704 5699 5695 5690 5685 5679 5672 5669 5669 5666 5661 5654 5647 5641 5634 5626 5619 5613 5606 5599 5592 5583 5575 5567 5560 5552 5546 5541 5537 5534 5533 5533 5533
5730 5728 5725 5722 5717 5713 5708 5704 5700 5696 5691 5686 5681 5676 5671 5665 5658 5652 5649 5646 5644 5638 5630 5624 5615 5608 5600 5592 5584 5576 5567 5558 5549 5539 5530 5521 5513 5506 5501 5498 5496 5493 5492
5721 5719 5715 5711 5707 5702 5698 5693 5689 5684 5678 5673 5668 5662 5655 5648 5640 5633 5628 5624 5622 5618 5609 5601 5591 5582 5574 5565 5555 5545 5534 5522 5511 5501 5491 5481 5472 5465 5461 5458 5454 5451 5450
5712 5709 5705 5701 5697 5692 5688 5683 5678 5672 5666 5661 5655 5648 5640 5632 5623 5614 5606 5600 5597 5595 5589 5578 5568 5556 5545 5532 5519 5506 5494 5481 5467 5455 5443 5433 5424 5418 5414 5410 5408 5406 5405
5702 5698 5695 5691 5686 5682 5677 5672 5666 5661 5655 5648 5641 5633 5624 5615 5606 5596 5586 5576 5569 5566 5566 5555 5541 5530 5516 5501 5485 5468 5452 5436 5421 5408 5397 5387 5379 5375 5373 5371 5370 5369 5368
5692 5689 5685 5680 5676 5671 5666 5661 5655 5648 5641 5634 5626 5617 5607 5598 5588 5578 5568 5557 5546 5537 5537 5533 5516 5498 5481 5464 5445 5424 5406 5387 5373 5360 5350 5345 5343 5344 5344 5344 5343 5343 5343
5683 5679 5675 5670 5665 5660 5654 5648 5642 5635 5628 5619 5610 5601 5590 5580 5570 5560 5550 5538 5525 5511 5504 5506 5488 5471 5451 5430 5408 5387 5366 5347 5332 5322 5315 5310 5309 5311 5314 5317 5319 5321 5321
5673 5669 5664 5659 5654 5648 5642 5636 5629 5621 5612 5604 5594 5584 5574 5563 5553 5541 5529 5516 5502 5486 5469 5462 5455 5434 5414 5393 5376 5359 5341 5321 5303 5291 5283 5281 5282 5285 5289 5292 5294 5296 5297
5664 5659 5654 5649 5643 5636 5630 5623 5615 5606 5598 5588 5578 5567 5557 5546 5534 5521 5507 5492 5477 5460 5439 5421 5412 5399 5383 5365 5352 5338 5321 5305 5288 5276 5269 5265 5265 5268 5271 5273 5274 5275 5275
5654 5649 5643 5637 5631 5624 5617 5609 5601 5592 5582 5571 5561 5551 5539 5527 5514 5500 5484 5467 5449 5430 5412 5395 5381 5370 5358 5344 5333 5322 5310 5295 5281 5270 5264 5259 5257 5257 5258 5258 5258 5258 5256
5644 5638 5631 5625 5618 5611 5603 5596 5587 5577 5567 5557 5546 5534 5521 5506 5492 5476 5458 5440 5421 5403 5387 5375 5364 5352 5340 5330 5320 5309 5299 5289 5276 5267 5265 5258 5254 5253 5250 5247 5244 5242 5240
5632 5627 5620 5613 5606 5598 5590 5581 5572 5562 5552 5541 5529 5517 5502 5486 5470 5452 5433 5414 5394 5377 5365 5357 5349 5339 5330 5319 5309 5300 5290 5282 5275 5267 5262 5256 5251 5248 5243 5240 5236 5233 5228
5622 5615 5608 5601 5593 5585 5576 5566 5557 5547 5536 5523 5510 5496 5481 5463 5444 5428 5410 5392 5376 5360 5347 5341 5336 5329 5319 5310 5302 5294 5285 5276 5268 5262 5259 5253 5246 5242 5235 5230 5227 5224 5217
5611 5604 5596 5589 5580 5571 5563 5553 5543 5531 5519 5505 5489 5473 5456 5438 5419 5401 5386 5374 5360 5346 5337 5331 5326 5318 5311 5303 5295 5287 5280 5274 5266 5257 5253 5249 5240 5235 5229 5222 5218 5215 5208
5600 5592 5584 5576 5568 5559 5549 5539 5528 5515 5501 5486 5469 5449 5431 5414 5397 5379 5366 5355 5344 5335 5328 5323 5316 5310 5304 5297 5289 5283 5277 5270 5265 5255 5247 5241 5233 5229 5222 5216 5213 5208 5203
5588 5581 5571 5563 5555 5545 5535 5524 5511 5498 5483 5468 5449 5429 5409 5390 5374 5361 5350 5341 5333 5327 5322 5316 5311 5305 5298 5291 5284 5277 5271 5265 5259 5253 5244 5237 5229 5223 5217 5210 5207 5203 5199